Location: D�derode
(51.8092°N, 10.1065°E)
Time: 06:53:21
(UTC+00:00)

FengYun 1-2 T - Pass Details

Date: 01 December 2020
Orbit: 847 x 880 km, 98.7° (Epoch: 23 January)

Event Time Altitude Azimuth Distance (km) Brightness Sun altitude
Rises 16:49:28 0° 163° (SSE) 3,422 7.4 -14.2°
Reaches altitude 10° 16:51:50 10° 163° (SSE) 2,485 6.6 -14.5°
Maximum altitude 16:57:22 89° 251° (WSW) 860 4.2 -15.4°
Drops below altitude 10° 17:02:54 10° 344° (NNW) 2,487 6.7 -16.2°
Sets 17:05:17 0° 345° (NNW) 3,425 7.4 -16.5°
